Theta_e
308 309 310 310 310 309 310 309 308 309 310 311 311 312 310 308 306 303 302 302 303 304 305 305 305 305 304 303 302 301 300 299 298 297 297 296 294 293 292 291 291 291
307 308 309 308 307 307 307 307 307 307 307 306 307 307 307 306 304 301 300 300 301 302 303 304 304 303 303 302 301 300 299 298 298 297 297 295 293 292 291 290 290 290
307 308 308 307 306 306 306 305 305 305 303 302 302 303 305 306 303 300 300 300 299 300 301 302 302 302 302 302 301 300 300 299 298 297 296 293 291 290 290 289 289 289
307 307 307 307 306 306 306 306 305 303 301 300 301 303 305 305 302 300 299 299 299 299 300 301 301 301 301 301 300 300 299 298 298 297 294 291 290 289 289 289 288 288
308 308 308 308 307 305 305 306 306 304 301 300 301 302 304 304 303 300 298 298 298 299 300 300 300 300 300 300 300 299 299 298 297 294 291 289 289 289 288 288 288 288
308 308 308 308 307 305 305 305 306 305 302 300 300 301 303 304 303 300 298 298 298 298 299 300 299 299 299 299 299 299 298 296 293 291 290 289 288 288 288 287 287 287
307 307 307 307 306 305 304 305 305 304 301 299 300 301 301 302 301 300 298 297 297 298 299 299 299 299 298 298 298 297 295 293 291 289 289 289 288 287 287 287 287 287
306 307 307 306 305 303 303 303 303 301 299 298 298 299 300 301 301 299 296 296 296 296 298 299 299 298 298 297 296 293 291 290 289 289 288 288 287 287 286 286 286 286
305 306 307 305 303 302 302 302 301 300 298 297 297 297 298 299 299 298 295 294 294 295 296 297 297 296 295 293 291 290 289 289 289 288 288 288 287 287 286 286 286 286
305 306 307 305 302 301 302 302 301 299 297 297 296 296 296 296 296 295 294 292 292 292 293 293 293 292 291 290 289 289 289 289 288 288 288 288 287 287 287 286 286 286
304 305 306 305 303 301 302 303 301 299 297 296 296 296 295 295 294 293 292 291 291 291 291 291 290 289 289 289 289 289 289 289 288 287 287 287 287 287 286 286 286 286
304 304 305 305 304 303 302 302 301 299 297 296 296 296 295 295 294 293 291 290 289 290 290 290 289 289 289 289 289 288 288 288 288 287 287 287 287 286 286 286 285 285
304 305 305 305 305 304 303 301 300 298 297 296 296 295 295 294 293 292 290 289 289 289 289 290 289 289 289 289 289 288 288 288 287 287 286 286 286 286 286 285 285 285
303 304 305 304 304 304 302 300 298 297 296 296 295 294 294 294 293 291 290 289 289 289 289 289 289 289 289 289 288 288 288 287 287 286 286 286 286 285 285 285 285 285
301 302 303 303 302 302 301 299 298 297 296 295 294 293 293 292 291 290 289 289 288 288 288 288 288 288 289 288 288 288 287 287 286 286 286 286 285 285 284 284 284 284
300 300 301 301 300 300 300 299 297 296 296 295 293 292 291 291 290 289 289 289 288 288 288 288 288 288 288 288 289 288 288 287 286 286 286 285 285 284 284 283 283 283
299 299 299 299 299 299 298 297 296 295 294 294 293 291 290 290 289 289 289 288 288 287 287 287 287 288 288 288 288 288 288 287 286 286 285 285 285 284 284 283 283 283
298 298 297 297 297 298 297 296 295 294 293 293 292 290 289 289 288 288 288 288 287 287 287 287 287 287 288 288 288 288 287 287 287 286 285 285 285 284 284 284 283 283
298 297 296 296 296 296 296 295 294 293 293 292 291 290 289 288 288 288 288 287 287 287 286 287 287 287 287 287 287 287 287 287 287 286 286 285 285 284 284 284 284 284
298 297 296 296 296 295 295 294 294 294 293 292 291 290 289 288 288 287 287 287 286 286 286 286 286 287 287 287 287 287 287 286 286 286 286 285 285 285 285 285 284 285
298 297 296 295 295 295 294 294 294 293 292 291 290 289 289 288 288 287 287 286 286 286 286 286 286 287 287 287 287 286 286 286 286 286 285 285 285 285 285 285 285 286
298 297 296 295 295 294 294 293 293 292 292 291 290 289 288 288 287 287 286 286 285 285 285 285 286 286 286 286 286 286 286 285 285 285 285 285 285 285 285 285 287 288
298 297 296 296 295 294 293 293 292 292 291 290 289 289 288 287 287 286 286 286 285 285 285 285 285 286 286 286 286 286 285 285 284 284 285 285 285 284 285 287 289 289
298 297 297 296 295 294 293 293 292 292 291 290 289 289 288 287 287 286 286 286 286 285 285 285 285 285 285 285 285 285 285 284 284 284 284 284 284 285 287 289 290 289
298 297 297 296 295 294 293 293 292 292 291 290 289 289 288 288 287 287 286 285 285 285 285 284 284 284 284 284 284 284 284 284 284 284 283 283 284 286 288 289 290 290
297 297 296 296 295 294 294 293 292 292 291 290 289 289 288 288 287 286 285 285 284 284 284 284 284 283 283 284 284 283 283 284 284 284 283 283 286 288 289 289 290 289
Wind_Speed
26 26 26 26 26 25 27 28 28 29 30 31 31 31 30 31 32 32 31 31 32 33 34 34 34 34 34 35 34 34 33 31 28 25 23 21 20 21 22 22 21 20
27 27 26 26 26 26 26 27 28 28 29 29 30 30 30 31 32 31 31 31 32 33 34 34 34 34 34 34 34 33 32 30 27 25 23 21 21 22 22 22 21 19
28 28 27 27 27 27 27 27 27 27 27 27 28 30 31 32 32 31 31 31 32 34 34 34 34 34 34 34 33 33 32 30 27 25 23 22 22 22 22 22 20 19
29 29 28 28 28 28 28 28 28 27 26 27 29 31 32 33 32 32 32 32 32 33 34 34 33 33 33 33 32 31 30 29 27 25 24 23 23 23 23 22 21 20
29 29 29 29 29 28 28 28 29 29 28 28 30 32 33 33 33 32 33 32 33 33 33 33 33 33 32 32 31 31 30 28 27 26 26 25 24 24 23 23 22 21
29 29 29 30 30 30 29 28 30 31 30 30 32 33 33 34 34 34 34 34 34 33 33 33 33 32 32 31 31 30 30 29 28 28 27 27 26 25 24 23 23 22
30 30 30 30 31 31 30 30 31 32 32 32 33 33 34 35 35 35 35 35 35 34 34 33 33 32 32 32 31 31 30 30 29 29 28 28 27 26 25 23 22 22
31 31 30 31 31 31 31 30 31 33 32 32 33 34 34 35 35 35 35 35 35 35 34 33 33 33 33 32 32 32 31 31 30 30 30 29 28 27 26 24 23 22
32 32 32 32 32 32 32 31 32 33 33 33 33 33 34 35 35 35 35 36 35 35 34 33 33 33 33 33 33 33 32 32 31 32 31 30 30 28 27 26 25 23
34 33 33 33 33 34 33 33 33 33 33 33 33 33 34 34 34 35 36 36 36 36 35 34 34 35 34 34 34 33 33 33 33 32 32 31 30 29 29 28 27 25
35 35 35 35 34 34 34 34 34 34 34 34 34 34 34 34 35 35 37 37 38 37 37 36 36 36 36 35 34 33 33 33 33 33 32 30 30 30 29 28 27 26
36 37 37 37 36 35 34 35 35 35 34 34 34 35 35 35 36 37 38 38 38 38 38 38 38 38 37 36 35 34 33 32 33 33 32 31 30 30 29 28 27 25
39 39 38 38 37 36 34 35 35 35 34 34 35 35 36 36 37 38 38 39 39 39 39 39 39 39 38 37 37 36 34 33 33 33 32 31 30 30 29 28 26 25
40 40 39 38 37 35 34 34 34 34 35 34 35 36 37 37 38 38 38 38 39 39 39 40 40 40 39 39 38 36 35 35 34 34 32 31 30 30 29 28 26 25
39 39 39 38 37 36 36 35 34 34 35 35 35 36 37 37 37 38 39 39 39 39 39 40 41 41 41 40 39 38 37 36 35 34 33 32 32 31 29 28 27 26
36 37 38 38 38 38 37 36 35 35 35 35 36 36 36 37 37 38 39 40 40 39 39 39 40 41 41 41 40 39 38 37 36 35 34 33 33 31 30 28 27 26
36 37 37 38 38 38 38 37 36 36 36 36 36 36 36 37 37 38 39 40 40 39 39 40 41 41 40 40 40 39 38 37 36 35 34 34 33 32 31 29 27 25
37 37 37 38 38 38 38 37 36 35 36 36 36 36 36 36 38 39 40 40 39 40 40 40 41 41 40 40 40 39 37 36 36 36 35 34 33 32 31 28 26 25
36 36 37 37 38 38 37 36 35 36 36 37 36 36 36 37 38 39 39 40 40 40 40 40 40 40 40 40 39 38 37 36 36 35 35 34 34 32 29 26 25 25
35 36 37 37 37 36 35 35 36 37 37 37 36 36 37 38 38 38 38 39 40 40 40 40 40 40 40 40 39 38 37 36 35 34 34 34 33 30 28 26 25 24
36 36 36 36 36 35 35 36 37 37 36 36 36 36 37 38 38 38 39 39 39 40 40 40 41 41 40 40 39 38 37 36 35 34 34 32 30 28 27 25 23 22
35 35 34 35 35 36 37 37 37 37 36 35 35 35 36 36 37 37 37 37 37 38 39 40 41 41 41 40 40 38 37 37 36 34 32 30 29 28 26 24 22 22
35 35 35 35 36 37 38 38 37 36 35 35 35 34 35 35 35 35 36 37 37 38 39 40 41 42 42 41 40 39 39 38 36 32 31 30 29 27 25 23 22 22
36 37 37 37 37 38 38 37 36 36 35 35 36 35 35 35 35 34 35 37 39 40 41 41 41 41 41 40 40 40 40 38 36 33 32 30 29 26 24 22 21 21
35 37 38 38 38 38 37 36 35 35 35 34 35 35 34 34 34 34 35 36 38 40 40 39 39 38 37 36 37 39 39 37 36 34 32 30 28 26 23 21 21 23
34 36 37 37 37 36 36 35 35 34 33 33 33 33 33 33 33 34 34 34 35 36 37 37 37 35 34 33 34 35 36 36 35 34 33 32 28 24 22 21 23 25
Wind_Direction
210 211 215 219 219 218 217 210 204 204 205 205 206 205 204 204 204 202 201 200 199 199 199 199 199 198 198 197 197 197 195 194 194 195 195 194 193 190 184 182 181 180
212 215 218 219 217 215 214 210 206 206 207 207 206 205 205 206 206 204 203 203 202 201 201 200 200 199 199 198 197 197 195 195 196 197 198 197 193 190 187 186 185 185
213 216 218 218 216 214 213 210 208 208 207 207 207 207 207 208 207 206 206 206 204 202 201 201 200 199 199 199 199 198 198 198 197 198 199 196 193 190 188 188 186 185
215 218 220 219 218 216 215 213 211 209 206 207 209 209 210 210 209 207 206 206 205 203 202 201 200 199 199 199 199 198 198 199 199 199 196 192 191 191 188 188 185 181
218 222 222 221 219 217 217 216 214 211 207 208 211 211 212 212 211 208 206 206 205 204 203 201 200 200 199 199 199 198 197 197 198 198 195 190 189 190 188 187 184 181
219 222 223 221 219 218 218 218 216 212 208 209 211 213 213 214 212 210 207 206 206 205 203 201 199 199 199 199 198 198 198 197 195 195 195 190 186 186 186 186 185 182
218 221 222 221 219 218 219 219 217 212 209 211 213 214 214 214 214 212 210 208 207 206 204 202 200 199 198 199 198 197 197 196 195 193 192 189 185 183 183 185 187 185
217 219 221 220 217 217 217 218 216 211 210 213 215 216 216 216 215 213 211 209 207 206 204 202 201 199 198 198 197 196 194 194 194 192 190 187 184 183 183 185 188 188
217 219 220 219 216 215 215 216 215 212 212 215 216 217 216 216 216 215 211 209 207 206 204 202 200 198 197 198 198 197 194 192 193 193 191 188 186 185 186 188 190 190
215 217 219 219 217 216 216 216 216 214 215 217 218 218 217 216 216 215 212 209 206 204 202 200 199 197 197 198 199 199 197 194 193 193 193 192 190 190 191 192 193 192
214 215 217 219 218 218 219 219 218 216 216 217 219 219 218 216 215 213 211 208 206 204 202 200 199 198 197 198 199 200 199 197 195 195 195 194 194 195 196 195 196 196
212 214 215 218 219 220 221 220 218 217 217 218 219 219 218 217 215 213 211 208 206 205 203 202 201 200 199 199 200 199 198 198 197 197 196 195 196 196 198 198 199 200
212 214 215 217 219 221 220 219 217 216 217 218 219 219 218 216 214 212 210 208 207 205 204 203 202 200 200 201 201 200 198 198 198 197 196 195 196 198 199 200 202 204
213 213 215 216 218 219 218 217 215 215 217 218 218 218 217 216 214 212 209 207 207 206 205 204 203 201 200 201 201 200 199 199 198 197 196 195 197 199 200 201 203 207
214 213 213 215 216 216 215 214 214 214 216 218 218 218 216 216 214 212 209 207 207 206 205 204 203 202 201 202 202 201 200 200 199 198 197 197 197 198 199 200 203 207
216 214 213 212 212 212 212 212 212 212 214 216 217 216 215 214 212 211 210 208 206 205 204 204 204 204 204 204 205 205 203 201 199 199 199 199 199 198 198 199 201 205
218 215 213 211 211 210 210 209 210 210 211 214 215 214 213 212 210 210 210 208 206 205 205 205 205 206 206 207 208 208 206 202 200 199 199 200 201 200 200 199 200 204
218 216 214 212 211 210 209 209 208 208 210 212 213 212 211 210 210 210 209 208 207 207 206 206 207 208 209 209 209 208 207 205 203 201 200 201 203 203 203 201 202 206
218 216 215 214 212 211 209 208 207 208 210 211 211 211 210 209 210 209 208 207 207 207 207 208 209 209 210 210 210 209 209 208 206 203 203 203 203 204 204 204 206 210
218 216 216 215 214 212 209 207 208 210 211 211 210 210 208 209 210 209 208 208 207 207 207 208 210 211 212 211 211 210 209 208 207 206 206 205 205 206 207 208 211 216
217 216 216 215 214 212 210 209 209 210 210 210 209 209 209 209 209 210 210 209 208 208 207 208 211 212 213 212 211 210 208 207 208 207 206 205 206 209 210 212 217 226
217 216 215 214 214 212 211 210 210 210 209 208 208 209 210 210 210 210 210 208 208 208 207 208 211 212 213 212 211 209 207 206 207 206 204 205 207 208 210 215 224 234
219 216 215 214 213 211 211 210 210 209 209 207 207 207 208 210 210 210 210 209 209 209 208 209 211 212 212 212 210 207 205 204 203 203 204 206 207 207 212 221 230 237
220 217 216 214 213 212 211 210 208 208 208 207 206 207 207 209 209 210 211 212 212 212 211 211 211 211 212 211 208 206 205 203 201 202 204 205 205 208 218 228 235 241
221 219 217 215 215 214 212 210 209 208 208 207 207 207 208 209 210 210 211 212 212 213 212 211 212 211 210 210 209 206 205 203 202 202 202 202 205 212 222 232 240 245
223 220 218 216 215 214 212 211 209 208 206 205 206 207 208 208 208 208 209 210 211 212 211 212 213 209 207 209 211 209 207 205 203 203 203 204 208 217 226 236 243 247